Location: Flint Hill Observatory
(31.1875°N, 100.5222°W)
Time: 08:56:28
(UTC-05:00)

Daily predictions for brighter satellites

Satellite Brightness Start Highest point End
(mag) Time Altitude Azimuth Time Altitude Azimuth Time Altitude Azimuth
Meteor 1-27 4.2 20:41:47 10° S 20:47:24 81° E 20:53:00 10° N
Cosmos 1455 2.7 20:45:46 10° SSE 20:49:18 38° E 20:52:50 10° NNE
In-Cosmos 22 Rocket 4.1 20:47:37 10° N 20:52:57 88° W 20:58:16 10° S
CENTAUR R/B 3.9 20:50:11 10° SW 20:55:44 41° NW 21:01:56 10° NNE
SJ-6B 3.3 20:53:11 10° S 20:57:00 62° W 21:00:56 10° NNW
Cosmos 1697 Rocket 4.0 20:55:19 10° SW 21:00:42 45° WNW 21:06:07 10° N
OTV 4 0.9 20:58:17 10° WNW 21:01:04 48° NNE 21:03:10 16° E
CZ-3B DEB 1.3 20:59:32 10° NNW 21:03:29 41° NE 21:04:59 19° ESE
Cosmos 1400 Rocket 2.7 21:01:34 10° N 21:05:26 62° E 21:09:20 10° SSE
ALOS 3.0 21:03:30 10° S 21:08:03 56° W 21:12:39 10° NNW
Cosmos 1892 2.6 21:07:41 10° N 21:11:29 70° E 21:15:16 10° SSE
USA 186 2.0 21:11:06 23° ESE 21:12:09 33° ENE 21:14:40 10° N
FENGYUN 3A 4.3 21:07:30 10° S 21:12:46 59° W 21:18:03 10° NNW
H-2A R/B 3.0 21:09:49 10° S 21:13:43 74° WSW 21:17:37 10° NNW
Cosmos 2297 Rocket 3.3 21:08:47 10° NW 21:14:06 44° WSW 21:19:26 10° S
BREEZE-M DEB (TANK) 3.3 21:11:48 10° WNW 21:14:28 55° SW 21:19:52 12° SE
DELTA 2 R/B (1) 4.0 21:09:01 10° WNW 21:14:32 55° NNE 21:18:45 17° E
Nadezhda 4 Rocket 4.0 21:11:05 10° N 21:17:22 84° E 21:23:41 10° S
Cosmos 1315 Rocket 3.2 21:13:59 10° N 21:17:52 42° E 21:20:23 19° SE
Cosmos 1634 Rocket 4.0 21:12:20 10° S 21:18:28 60° E 21:24:40 10° NNE
Cosmos 2322 Rocket 2.4 21:16:01 10° S 21:21:21 47° ESE 21:26:43 10° NNE
Cosmos 1707 Rocket 3.5 21:17:05 10° S 21:21:32 87° E 21:25:59 10° N
Cosmos 2263 Rocket 4.1 21:20:41 10° NNE 21:22:56 12° ENE 21:24:22 11° ENE
Meteor 2-3 Rocket 4.0 21:18:32 10° NNW 21:24:13 71° W 21:29:57 10° S
Spot 2 Rocket 3.6 21:20:41 10° S 21:25:47 80° WSW 21:30:54 10° NNW
Cosmos 1092 Rocket 4.0 21:19:50 10° N 21:26:09 69° E 21:32:28 10° SSE
CZ-2D R/B 3.6 21:28:22 10° S 21:32:14 66° W 21:36:06 10° NNW
Cosmos 2360 Rocket 3.7 21:34:16 18° ENE 21:34:16 18° ENE 21:36:38 10° NE
Cosmos 1980 Rocket 3.6 21:27:56 10° SW 21:33:15 41° WNW 21:38:36 10° N
Cosmos 1733 Rocket 4.3 21:30:55 10° NNE 21:34:26 23° ENE 21:34:27 23° ENE
Cosmos 1862 Rocket 4.4 21:34:03 29° ESE 21:34:34 30° E 21:38:28 10° NNE
Resurs 1-3 4.1 21:31:03 10° S 21:35:22 60° W 21:39:43 10° NNW
Intercosmos 25 Rocket 3.0 21:36:12 44° ESE 21:36:35 47° E 21:39:49 10° NNE
Meteor 1-29 2.8 21:33:36 10° NNE 21:37:05 73° ESE 21:39:41 16° S
Helios 1B rocket 2.4 21:33:35 10° N 21:37:42 86° WNW 21:41:48 10° SSW
Lacrosse 4 Rocket 3.1 21:36:17 10° NNE 21:39:24 19° ENE 21:39:39 19° ENE
SL-8 R/B 3.6 21:34:58 10° NW 21:39:49 86° SW 21:41:56 34° SE
GENESIS II 4.3 21:36:49 10° SSW 21:40:44 52° ESE 21:44:41 10° NE
Cosmos 1825 2.8 21:39:59 10° NNE 21:43:21 36° ENE 21:43:21 36° ENE
Cosmos 1869 Rocket 4.0 21:40:18 10° NNW 21:44:44 62° W 21:48:56 11° S
Envisat 3.0 21:42:59 28° SSE 21:45:39 65° ENE 21:50:41 10° N
Cosmos 1939 Rocket 3.1 21:45:36 43° ESE 21:46:21 50° ENE 21:50:16 10° N
Hubble Space Telescope 3.2 21:45:30 10° SW 21:46:51 11° SSW 21:47:53 11° SSW
CZ-4B DEB 2.9 21:48:20 55° NE 21:48:20 55° NE 21:50:59 10° N
Cosmos 1900 4.4 21:42:52 10° NNW 21:48:00 87° WSW 21:50:28 31° SSE
Cosmos 2242 Rocket 3.5 21:43:54 11° S 21:48:12 81° E 21:52:43 10° N
SL-16 R/B 2.1 21:42:37 10° SSW 21:48:16 84° ESE 21:53:57 10° NNE
SJ-11-01 4.2 21:49:40 39° SE 21:51:16 63° ENE 21:55:53 10° N
Centaur AC-42 3.7 21:26:28 10° W 21:54:09 44° SSW 21:57:12 29° SSE
GPS 2-04 Rocket1 3.5 21:55:22 10° W 21:58:44 35° SSW 21:58:46 35° SSW
Cosmos 1627 Rocket 4.4 21:53:17 10° N 21:59:30 84° E 22:03:09 26° S
Cosmos 2279 Rocket 3.9 21:54:46 11° S 22:00:51 78° E 22:07:06 10° N
Resurs 01 Rocket 3.9 22:00:44 10° SSW 22:04:15 23° W 22:07:47 10° NW
ATLAS 5 CENTAUR R/B 4.1 22:00:53 10° N 22:04:49 17° NE 22:05:54 17° ENE
Cosmos 2195 Rocket 4.4 21:58:41 10° N 22:04:49 85° W 22:08:36 25° S
OAO 3 Rocket 3.7 22:00:28 10° W 22:05:18 56° N 22:07:08 35° NE
Helios 1A 3.6 22:03:27 29° SSW 22:05:22 54° W 22:09:32 10° NNW
CCE 1 Rocket 4.2 21:58:32 10° W 22:06:35 66° S 22:07:45 51° SE
SEDSat Delta rocket 3.5 22:01:13 10° WSW 22:06:41 78° SSE 22:08:32 46° E
SAR-Lupe-4 4.5 22:07:08 38° SW 22:07:56 45° W 22:11:23 10° NNW
USA 234 3.3 22:07:35 41° ESE 22:09:58 68° NE 22:16:28 10° NW
ARGOS 4.4 22:11:51 25° ENE 22:11:51 25° ENE 22:15:31 10° NNE
Atlas Centaur 2 2.9 22:06:52 10° WSW 22:14:02 64° SSE 22:16:54 42° E
Cosmos 2180 Rocket 4.5 22:16:47 24° S 22:20:54 88° W 22:27:18 10° N
ERS-1 Rocket 2.9 22:22:11 69° ENE 22:22:11 69° ENE 22:27:07 10° N
Cosmos 1428 Rocket 4.3 22:18:25 10° N 22:24:32 81° E 22:25:45 59° SSE
ATLAS CENTAUR R/B 4.2 22:20:56 10° WNW 22:24:33 29° SW 22:28:14 20° S
Cosmos 1408 3.6 22:21:31 10° NNW 22:24:36 44° WNW 22:24:36 44° WNW
ERBS 4.3 22:24:20 10° NNW 22:26:03 26° NNW 22:26:03 26° NNW
SeaSat 1 3.6 22:39:59 34° NNE 22:39:59 34° NNE 22:43:19 10° N
MetOp-A 4.4 22:49:41 64° N 22:49:41 64° N 22:54:12 10° NNW
USA 229 DEB 3.5 22:51:27 78° ENE 22:51:27 78° ENE 22:57:55 10° NNE
USA 229 3.6 22:51:44 74° ENE 22:51:44 74° ENE 22:58:01 10° NNE
Milstar 3 2.8 22:44:16 10° W 22:50:57 59° SSW 22:50:57 59° SSW
Skynet4D Del rocket 4.4 22:47:41 10° W 22:55:00 62° SSW 22:55:00 62° SSW
H-2A R/B 3.6 23:04:41 26° NNE 23:04:41 26° NNE 23:06:56 10° N
Terra 4.3 23:05:46 13° NNE 23:05:46 13° NNE 23:06:26 10° NNE
Cosmos 2263 Rocket 2.8 23:01:49 10° NNW 23:06:05 53° NW 23:06:05 53° NW
Cosmos 2360 Rocket 3.2 23:15:51 41° WNW 23:16:14 42° WNW 23:21:36 10° N
Lacrosse 4 Rocket 3.9 23:14:15 10° NW 23:16:01 21° WNW 23:16:01 21° WNW
ATLAS 5 CENTAUR R/B 3.6 23:43:50 10° NNW 23:47:28 38° NW 23:47:28 38° NW
